Nantucket, MA

3:17 PM EDT on August 31, 2015 (GMT -0400)
Brant Point | | Change Station
CLOSE
Current Station
Personal Weather Station
Location: Nantucket, MA
Elevation: 7 ft
Nearby Weather Stations

Elev 7 ft 41.29 °N, 70.10 °W | Updated 3 minutes ago

Clear
Clear
83.3 °F
Feels Like 89 °F
N
0.0
Wind Variable Wind from NW
Gusts 0.0 mph

Today
High -- | Low -- °F
--% Chance of Precip.
Yesterday
High -- | Low -- °F
Precip. -- in
6:05 AM 7:15 PM
Waning Gibbous, 94% visible
Pressure 29.93 in
Visibility 10.0 miles
Clouds Clear
Heat Index 89 °F
Dew Point 72 °F
Humidity 69%
Rainfall Not available.
Snow Depth Not available.
UV 7 out of 12
Pollen 9.60 out of 12
Air Quality Not available.
Flu Activity Not available.
METAR KACK 311853Z AUTO 26015KT 10SM CLR 27/21 A2993 RMK AO2 SLP134 T02720211
Pressure 29.93 in
Visibility 10.0 miles
Clouds Clear
Heat Index 89 °F
Dew Point 72 °F
Humidity 69%
Rainfall Not available.
Snow Depth Not available.
UV 7 out of 12
Pollen 9.60 out of 12
Air Quality Not available.
Flu Activity Not available.
METAR KACK 311853Z AUTO 26015KT 10SM CLR 27/21 A2993 RMK AO2 SLP134 T02720211

10-Day Weather Forecast

×

Almanac

Astronomy

Aug. 31, 2015 Rise Set
Actual Time
Civil Twilight
Nautical Twilight
Astronomical Twilight
Moon
Length of Visible Light
Length of Day
Tomorrow will be .
, % of the Moon is Illuminated

Today's Extremes

State Highs State Lows

Community

WunderPhotos

Upload Photos

1,851,340 photos uploaded!

WunderBlogs® & News

Nearby

Air Quality

  Air Quality AQ Index Pollutant
Not available.

Snow Depth

Station Depth Elevation

Earthquake Activity

City Distance Mag. Time & Date
Minimum magnitude displayed is 2.5.

Coastal Water Temperatures

Place Temperature

Stations

Nearby Weather Stations

Station Location Temp. Windchill Dew Point Humidity Wind Precip. Elev Updated Type